Погода в Абдрееве

Россия / Ульяновская область     54°01′09″N   50°01′56″E
темп.,
°C
ветер,
м/с
пор.,
м/с
влажн.,
%
обл.,
%
осадки,
мм/ч
давл.,
гПа
погр.,
м
15 мая, сб
сб1501:00+18ю495198 0.0 1020145
04:00+17ююв494989 0.0 1020135
07:00+18ю4115392 0.0 1020223
10:00+25ю583718 0.0 1020446
13:00+29ю692570 0.0 10201225
16:00+30ююз692881 0.0 10191877
19:00+25ю484345 0.0 1019179
22:00+21ю49400 0.0 1019119
16 мая, вс
вс1601:00+19ююв49473 0.0 1018123
04:00+18ююв49525 0.0 1019138
07:00+20ююв511565 0.0 1019237
10:00+26ю69405 0.0 1019565
13:00+30ююз610275 0.0 10182569
16:00+30юз6102927 0.0 10182995
19:00+25юз374450 0.0 1017138
22:00+22ююз2242100 0.0 101711
17 мая, пн
пн1701:00+20ююв344395 0.0 101841
04:00+20ю3749100 0.0 1018117
07:00+21ююз41156100 0.1 1019261
10:00+27ююз4637100 0.1 1019466
13:00+30ю3530100 0.0 10191385
16:00+31ююз3426100 0.0 10183300
19:00+20всв71162100 0.4 1019191
22:00+23вюв51042100 0.4 1018139
18 мая, вт
вт1801:00+20ююв4852100 0.0 1018127
04:00+19ююв485593 0.0 1018110
07:00+20ююв3762100 0.0 1018166
10:00+26ю4638100 0.0 1018415
13:00+30ююв452598 0.0 10171698
16:00+31ююв362236 0.0 10163346
19:00+28ююз114194 0.0 101513
22:00+22вюв334380 0.0 101631
19 мая, ср
ср1901:00+20юв484489 0.0 1016111
04:00+19юв4104081 0.0 1015133
07:00+21юв595144 0.0 1015167
10:00+27юв69395 0.0 1014517
13:00+30юв88245 0.0 10132357
16:00+30вюв682840 0.0 10122942
19:00+23всв344198 0.0 101258
22:00+20ююз3554100 0.1 1013132